Showing default

SUOMI100, 43804

Orbit data source: Space-Track

SUOMI100, 43804 is a payload satellite owned by Aalto univ. (FI) in SSO that was launched on Mon, 03 Dec 2018 UTC via an FALCON 9 launch vehicle from the Air Force Western Test Range (AFWTR). Payload-class satellites include a variety of spacecraft equipped with specific instruments for various scientific and technological missions. These include communications satellites like Starlink; space stations such as the ISS; scientific satellites like the Hubble; Earth observation satellites from companies like Planet Labs, Umbra, and HawkEye 360; GPS; miniature CubeSats for education and research; and military/defense satellites.

Loading next visibility...
Identifier
43804, 2018-099AY
Orbit
SSO
Country
Flag of FIFI / FIN
Related business
Manufacturer
Aalto univ.
Mission
Operational Amateur Technology
Bus & Motor
CUBESAT 1U, Unknown motor
Mass
1 kg wet, 1 kg dry
Launch date (UTC)
2018-12-03 (8 years ago)
Launch vehicle
FALCON 9
Launch site
Air Force Western Test Range (AFWTR)
Object type
Payload
Rocket body
Debris
Shape & HBR
Box, 0.1 m
Radar Cross Section
0.015 m², Medium (>0.1 m² and < 1m²)

Expand to show TLE details & history
Last TLE update: 5 days ago

TLE from 5 days ago
0 SUOMI100
1 43804U 18099AY  26155.11113851  .00014467  00000-0  52952-3 0  9994
2 43804  97.4190 215.5556 0008831 333.9373  26.1421 15.28111453411420
Epoch: 2026-06-04T02:40Z
TLE epoch observation values (Epoch: 2026-06-04T02:40:02.367Z)
Latitude
0.00002°
Longitude
-77.01436°
Altitude
479.121 km
Speed
7.629 km/s
True Right ascension
14h 22m 13s
True Declination
0° 00' 00"
Sunlit
Object was in full shadow at epoch
Visualization orbit readout
Latitude
Unknown
Longitude
Unknown
Altitude
Unknown
Speed
Unknown
Apparent Right ascension
Unknown
Apparent Declination
Unknown
Sunlit
N/A
Visualization observer readout
Local Sidereal Time
19:05:32
Azimuth
Unknown
Elevation
Unknown
Doppler factor
Unknown
Orbital elements
Apogee altitude
484.469 km
Perigee altitude
472.359 km
Semi-major axis
6,856.551 km
Eccentricity
0.00088
Inclination
97.419°
RAAN
215.5556°
Arg. of periapsis
333.9373°
True anomaly
26.18673°
Mean anomaly
26.1421°
Eccentric anomaly
26.16441°
Mean motion
3.82283 °/min
Orbital period
94.17 mins
BSTAR
0.00052952
Loading maneuver chart data...
Computing Atmospheric mass density...
Loading historical data...
Loading historical data...
Loading historical data...
Loading historical data...
Loading historical data...
Loading historical data...
Loading historical data...

Documentation

Showing up to 5 results
|